Vorticity
6 11 12 7 7 5 6 9 2 8 2 6 1 7 3 -0 -1 6 1 1 3 1 7 -2 4 18 26 10 9 6 10 6 6 5 7 10 6 9 13 7 11 7 10
6 8 13 6 5 1 2 3 5 2 2 3 6 8 10 4 3 5 4 4 6 4 2 2 9 12 25 10 11 -1 -4 9 5 5 0 14 2 -3 -0 11 10 8 7
9 7 15 7 5 0 2 3 2 3 1 -1 3 5 3 6 4 3 6 8 7 5 5 0 7 -3 17 11 15 -3 23 5 1 2 3 13 -2 10 5 7 9 8 5
10 9 7 13 10 7 5 3 5 4 7 7 5 5 6 6 5 5 8 8 11 8 6 1 2 -4 38 11 11 8 2 -3 9 4 9 -3 21 19 5 6 9 9 9
11 12 9 11 9 9 10 10 7 5 4 4 3 4 5 7 9 14 11 11 8 11 7 4 5 -0 21 12 7 10 0 10 2 13 0 14 13 15 10 13 17 6 9
6 9 11 9 8 6 5 7 8 9 3 4 5 6 7 8 11 11 10 13 10 7 7 5 10 15 26 10 7 2 10 12 3 2 9 2 16 8 7 5 8 10 12
17 7 13 8 6 7 6 6 4 6 6 5 5 7 14 13 13 11 -2 12 14 12 17 14 10 18 20 11 11 7 9 7 -1 7 7 15 5 10 10 9 9 10 9
6 6 11 11 6 4 4 3 3 3 5 8 8 15 11 15 7 8 7 3 6 9 14 10 13 16 22 11 13 -3 22 2 4 11 11 6 10 9 8 10 10 11 10
32 5 6 14 7 5 6 5 6 6 8 6 14 15 14 -2 7 5 9 14 14 17 17 14 15 7 8 9 4 16 3 6 14 9 9 7 9 8 10 9 10 11 18
32 8 2 10 7 3 -1 4 4 5 5 9 20 7 1 7 8 4 14 17 17 11 13 13 18 13 15 6 24 8 5 14 8 8 7 7 8 12 12 9 11 14 14
27 11 2 9 6 1 3 3 6 10 9 21 4 3 8 12 10 13 14 15 10 12 13 16 15 14 23 12 9 6 11 9 5 5 8 8 13 12 10 11 25 7 2
20 15 9 9 4 4 8 6 9 14 23 3 0 3 10 13 10 11 16 10 7 10 11 18 13 20 1 5 4 10 10 4 5 9 16 23 21 15 18 19 4 1 3
16 13 6 7 2 2 9 8 17 16 -2 -3 6 9 10 11 14 15 15 4 13 9 11 14 10 13 3 4 3 7 6 8 15 18 22 17 14 12 11 6 5 9 14
24 14 6 6 9 19 13 34 4 -2 2 8 10 13 13 13 17 10 7 15 7 12 11 15 10 9 3 17 9 5 10 14 5 11 14 14 12 9 9 11 12 12 13
30 17 16 18 25 32 18 -2 -0 5 10 9 12 13 15 13 13 13 9 6 14 20 18 14 14 13 10 5 8 17 16 4 6 10 9 14 11 11 12 11 12 14 16
18 37 43 27 9 -0 5 5 6 8 12 13 15 14 12 9 8 9 9 18 18 13 9 11 8 5 8 10 11 8 7 12 10 4 13 13 8 9 10 14 15 16 15
33 8 5 0 3 2 4 9 10 11 12 13 13 13 7 6 8 13 12 16 9 11 9 10 8 7 10 16 8 8 10 10 10 14 16 10 11 10 13 15 15 13 13
5 5 8 9 5 8 5 15 17 14 12 9 10 13 5 7 13 8 12 11 10 5 8 9 9 14 12 8 9 12 10 12 13 11 9 9 9 12 15 14 12 12 11
8 1 -1 -3 6 -9 12 25 12 -1 14 13 14 8 8 3 11 15 10 9 5 8 10 9 9 9 12 8 8 13 13 16 14 11 10 11 11 15 15 11 11 12 10
-2 9 1 19 24 7 3 3 10 6 17 16 18 -6 -1 24 14 19 10 9 2 10 16 11 9 10 9 9 11 10 12 12 10 11 14 16 14 15 11 11 11 10 10
14 21 20 19 5 6 15 1 1 11 17 3 4 10 9 2 13 7 7 11 10 18 14 14 14 12 10 11 15 12 13 12 12 17 21 14 13 11 11 10 10 10 12
18 10 10 9 9 27 -10 11 12 16 6 3 20 -7 20 3 7 6 6 13 6 9 8 4 7 16 8 9 11 12 10 11 15 19 13 12 10 9 9 8 9 12 12
6 4 25 14 -2 7 30 10 19 3 20 4 -6 12 -24 15 3 7 3 10 2 8 -1 12 17 14 7 12 11 12 10 10 13 13 10 12 10 8 7 10 12 11 13
19 17 21 8 18 17 9 3 -0 17 4 11 11 18 9 19 2 11 -2 -1 14 18 -0 12 15 7 4 16 15 11 8 8 11 12 12 11 8 7 10 10 13 10 11
6 5 6 1 18 4 11 -2 11 -5 -5 -20 37 -8 9 21 12 -20 3 20 13 26 22 14 7 12 13 15 11 8 8 10 13 12 12 11 8 8 9 10 12 11 11
38 3 20 7 1 33 18 -25 0 14 14 24 -3 11 23 -8 13 14 10 10 17 15 11 11 13 16 18 18 13 11 10 10 12 13 13 11 8 8 8 10 11 12 11
Height
3159 3162 3166 3170 3174 3177 3179 3183 3185 3187 3188 3191 3193 3195 3196 3196 3197 3197 3196 3195 3193 3192 3191 3191 3190 3187 3186 3184 3183 3182 3181 3180 3180 3179 3179 3178 3176 3175 3173 3170 3168 3167 3165
3155 3158 3161 3166 3169 3172 3175 3178 3181 3183 3185 3186 3188 3189 3191 3191 3191 3191 3191 3189 3188 3187 3186 3184 3184 3183 3182 3181 3179 3178 3179 3176 3176 3176 3175 3173 3172 3170 3168 3166 3162 3159 3158
3150 3154 3157 3160 3164 3167 3171 3174 3176 3178 3179 3181 3182 3184 3186 3187 3187 3186 3185 3182 3181 3180 3180 3180 3178 3178 3177 3177 3176 3174 3173 3172 3171 3170 3169 3167 3165 3162 3160 3158 3156 3152 3150
3144 3148 3151 3155 3159 3163 3166 3169 3171 3173 3174 3175 3176 3177 3179 3180 3180 3181 3180 3177 3174 3173 3172 3173 3173 3172 3170 3172 3171 3170 3168 3167 3166 3163 3162 3160 3158 3157 3152 3150 3148 3146 3145
3139 3142 3145 3150 3154 3157 3160 3163 3166 3167 3168 3170 3170 3171 3171 3172 3174 3174 3173 3172 3169 3166 3165 3166 3166 3165 3164 3164 3164 3164 3162 3162 3160 3158 3156 3153 3150 3147 3145 3142 3139 3137 3136
3133 3136 3140 3144 3147 3150 3153 3156 3159 3161 3162 3164 3165 3166 3166 3165 3167 3168 3167 3166 3162 3160 3159 3159 3158 3158 3156 3156 3158 3158 3157 3155 3153 3150 3147 3144 3143 3140 3137 3134 3131 3128 3126
3125 3129 3133 3137 3140 3143 3147 3149 3152 3155 3157 3158 3159 3159 3160 3159 3161 3160 3159 3157 3155 3153 3153 3152 3151 3149 3149 3150 3151 3149 3146 3147 3145 3143 3139 3139 3135 3133 3128 3125 3122 3119 3117
3117 3121 3126 3129 3133 3136 3139 3142 3145 3148 3149 3150 3151 3152 3152 3152 3153 3153 3151 3148 3146 3144 3143 3143 3142 3143 3140 3142 3142 3139 3138 3138 3138 3136 3132 3131 3128 3125 3120 3117 3114 3111 3109
3109 3113 3118 3122 3126 3128 3131 3135 3139 3140 3142 3144 3145 3144 3145 3146 3146 3144 3141 3139 3137 3136 3135 3134 3135 3135 3134 3134 3134 3132 3133 3133 3130 3129 3126 3122 3120 3116 3112 3107 3105 3100 3098
3100 3105 3110 3115 3119 3121 3123 3127 3130 3134 3137 3136 3137 3138 3139 3138 3137 3136 3134 3131 3130 3130 3129 3127 3126 3127 3127 3125 3126 3125 3125 3126 3123 3121 3118 3114 3110 3106 3102 3098 3095 3092 3090
3092 3096 3102 3106 3110 3113 3115 3120 3125 3126 3128 3129 3130 3130 3131 3131 3130 3129 3126 3125 3124 3123 3123 3122 3120 3120 3120 3122 3121 3118 3119 3118 3116 3112 3109 3105 3101 3097 3093 3091 3088 3086 3083
3083 3089 3093 3097 3101 3104 3109 3116 3116 3119 3121 3123 3124 3124 3123 3123 3121 3119 3119 3119 3118 3117 3115 3115 3115 3115 3114 3114 3113 3112 3111 3109 3107 3103 3099 3095 3092 3090 3087 3084 3082 3079 3076
3076 3080 3085 3088 3094 3098 3105 3109 3111 3114 3117 3117 3118 3116 3115 3114 3115 3114 3113 3112 3112 3110 3109 3109 3110 3109 3109 3108 3107 3106 3104 3102 3099 3095 3090 3087 3085 3083 3082 3079 3076 3074 3071
3069 3073 3077 3082 3088 3093 3098 3103 3106 3108 3109 3109 3108 3108 3107 3107 3107 3107 3107 3106 3105 3105 3104 3103 3103 3103 3102 3101 3100 3099 3096 3094 3091 3087 3086 3083 3080 3077 3074 3071 3068 3065 3061
3063 3066 3070 3077 3082 3087 3093 3097 3100 3102 3102 3101 3101 3101 3101 3102 3101 3101 3101 3100 3099 3098 3098 3098 3098 3097 3097 3096 3094 3092 3089 3085 3083 3081 3079 3075 3072 3070 3067 3064 3060 3057 3053
3058 3061 3066 3074 3080 3085 3089 3092 3093 3094 3094 3094 3095 3095 3095 3096 3095 3095 3096 3095 3094 3095 3095 3095 3094 3092 3090 3089 3087 3084 3083 3080 3077 3075 3073 3070 3066 3063 3061 3058 3054 3051 3048
3055 3063 3069 3073 3077 3080 3083 3085 3085 3085 3086 3088 3091 3090 3089 3089 3089 3090 3090 3090 3091 3091 3090 3088 3087 3085 3083 3082 3080 3077 3075 3073 3070 3067 3065 3064 3062 3059 3055 3052 3049 3046 3043
3054 3060 3066 3069 3073 3076 3078 3079 3078 3079 3081 3082 3084 3086 3086 3084 3083 3085 3085 3085 3085 3085 3086 3084 3082 3080 3079 3078 3078 3076 3072 3069 3066 3063 3061 3058 3056 3053 3050 3048 3045 3041 3038
3050 3056 3059 3062 3065 3067 3068 3070 3070 3070 3075 3075 3079 3081 3080 3078 3080 3080 3080 3079 3078 3077 3077 3076 3074 3074 3073 3072 3070 3069 3067 3064 3061 3058 3055 3053 3051 3049 3046 3043 3041 3037 3034
3046 3051 3053 3056 3057 3056 3058 3065 3066 3064 3067 3069 3073 3075 3074 3074 3075 3076 3074 3074 3073 3072 3070 3070 3069 3068 3067 3066 3064 3062 3060 3057 3054 3052 3050 3048 3047 3045 3042 3040 3037 3034 3030
3039 3046 3046 3047 3050 3053 3052 3056 3057 3059 3063 3064 3067 3070 3070 3068 3068 3069 3071 3068 3067 3067 3066 3066 3065 3064 3062 3061 3060 3058 3055 3052 3049 3047 3045 3044 3042 3041 3039 3036 3034 3030 3027
3036 3042 3044 3047 3049 3050 3050 3053 3052 3053 3056 3059 3061 3062 3064 3064 3063 3062 3064 3064 3063 3061 3060 3060 3059 3057 3055 3054 3053 3051 3048 3046 3044 3043 3042 3040 3038 3037 3035 3033 3030 3027 3023
3033 3038 3039 3040 3045 3047 3046 3046 3047 3049 3051 3053 3055 3058 3058 3058 3058 3056 3056 3055 3054 3053 3053 3053 3053 3051 3049 3048 3047 3045 3043 3042 3041 3039 3037 3036 3035 3034 3032 3029 3027 3024 3020
3029 3031 3034 3036 3038 3039 3042 3044 3045 3047 3048 3049 3050 3051 3050 3051 3051 3052 3050 3050 3047 3047 3047 3045 3044 3043 3042 3042 3041 3041 3039 3038 3036 3035 3033 3032 3031 3030 3029 3026 3024 3021 3018
3025 3025 3029 3032 3034 3036 3038 3039 3040 3041 3042 3043 3041 3045 3045 3044 3045 3045 3044 3043 3042 3041 3040 3039 3039 3036 3036 3037 3035 3034 3034 3033 3032 3030 3029 3028 3028 3027 3026 3024 3022 3018 3016
3022 3023 3024 3025 3028 3028 3028 3030 3034 3034 3035 3037 3037 3037 3037 3037 3039 3038 3037 3037 3036 3034 3034 3033 3031 3030 3030 3031 3031 3029 3028 3027 3027 3026 3026 3025 3024 3023 3022 3021 3019 3016 3014